GSAT-17

Last updated on Sat Aug 15 2026 00:02:49 GMT+0000 (Coordinated Universal Time)

1 42815U 17040B 26226.64346179 -.00000273 00000+0 00000+0 0 9991 2 42815 0.0215 89.0144 0002741 160.5141 38.6601 1.00271156 33371
UTC large
Height (km)
Speed (km/s)
/
Latitude / Longitude
Inclination (degrees)
Orbital Period (minutes)
Azimuth
Elevation
Range (km)
Doppler Factor

Next 0 passes for location: London (51.5072 / 0.1276)

No passes found over London.
GSAT-17